View from above orbital plane
|
View from above satellite
|
Ground track
|
The orbit data is extracted from the following two-line orbital elements,
1 28541U 05004C 21053.87129338 0.00000000 00000-0 00000-0 0 04
2 28541 63.4256 352.8086 0390096 358.3742 1.6258 13.40816917 01
Epoch (UTC): | 22 February 2021 20:54:39 |
Eccentricity: | 0.0390096 |
inclination: | 63.4256° |
perigee height: | 814 km |
apogee height: | 1398 km |
right ascension of ascending node: | 352.8086° |
argument of perigee: | 358.3742° |
revolutions per day: | 13.40816917 |
mean anomaly at epoch: | 1.6258° |
orbit number at epoch: | 0 |
The dashed part of the orbit path shows where the satellite is in the earth's shadow,
|
|